Flag for Germany Weather past 2 weeks in Nuremberg, Bavaria, Germany

Now
52 °F

Clear.


Feels Like: 52 °F
Forecast: 43 / 70 °F
Wind: 1 mph from North

Location: Nuernberg

Current Time: Aug 21, 2014 at 5:00:57 AM

Latest Report: Aug 21, 2014 at 4:20 AM


Visibility: 10 mi

Pressure: 30.01 "Hg

Humidity: 94%

Dew point: 50 °F

Location of NurembergLocation

Historic Weather in Nuremberg — Graph

°F

Nuremberg temperature yesterday

Maximum temperature yesterday: 64 °F (at 2:50 PM)
Minimum temperature yesterday: 46 °F (at 1:50 AM)
Average temperature yesterday: 56 °F

Past Weeks' High & Low Weather Summary

 TemperatureHumidityPressure
High84 °F (Aug 10, 2:20 PM)100% (Aug 6, 3:20 AM)30.12 "Hg (Aug 6, 3:20 AM)
Low46 °F (Aug 19, 6:50 AM)35% (Aug 10, 4:50 PM)29.68 "Hg (Aug 13, 2:50 PM)
Average63 °F74%29.94 "Hg
* Reported Aug 6 3:20 AM — Aug 21 3:50 AM, Nuremberg, Weather by CustomWeather, © 2014

Note: Actual official high and low records may vary slightly from our data, if they occured in-between our weather recording intervals... More about our weather records

Advertising

Nuremberg weather history for previous 24 hours

 ConditionsComfort  
Time TempWeatherWind HumidityBarometerVisibility
3:50 AM
Aug 21
52 °FClear.2 mph94%30.01 "Hg10 mi
3:20 AM52 °FClear.1 mph94%30.01 "Hg10 mi
2:50 AM52 °FClear.1 mph94%30.01 "Hg10 mi
2:20 AM52 °FClear.2 mph94%30.01 "Hg10 mi
1:50 AM52 °FClear.2 mph88%30.01 "Hg10 mi
1:20 AM52 °FClear.No wind88%30.01 "Hg10 mi
12:50 AM54 °FClear.1 mph88%30.01 "Hg10 mi
12:20 AM54 °FClear.2 mph88%30.01 "Hg10 mi
11:50 PM
Aug 20
55 °FClear.1 mph82%30.01 "Hg10 mi
11:20 PM55 °FClear.1 mph82%30.01 "Hg10 mi
10:50 PM55 °FClear.1 mph88%30.01 "Hg10 mi
10:20 PM55 °FClear.1 mph82%30.01 "Hg10 mi
9:50 PM57 °FClear.2 mph72%30.01 "Hg10 mi
9:20 PM59 °FSunny.1 mph63%30.01 "Hg10 mi
8:50 PM57 °FSunny.1 mph77%30.01 "Hg10 mi
8:20 PM59 °FSunny.1 mph72%30.01 "Hg10 mi
7:50 PM61 °FSunny.1 mph59%30.01 "Hg10 mi
7:20 PM61 °FSunny.2 mph59%29.98 "Hg10 mi
6:50 PM63 °FSunny.2 mph52%29.98 "Hg10 mi
6:20 PM63 °FSunny.2 mph49%30.01 "Hg10 mi
5:50 PM63 °FPassing clouds.5 mph49%30.01 "HgN/A
5:20 PM64 °FPassing clouds.5 mph46%30.01 "HgN/A
4:50 PM64 °FPassing clouds.6 mph43%30.01 "HgN/A
4:20 PM64 °FSunny.3 mph46%30.01 "Hg10 mi
3:50 PM64 °FPassing clouds.5 mph46%30.01 "HgN/A
3:20 PM63 °FSunny.3 mph45%30.01 "Hg10 mi
2:50 PM64 °FPartly sunny.6 mph46%30.04 "HgN/A
2:20 PM63 °FBroken clouds.2 mph49%30.04 "HgN/A
1:50 PM63 °FBroken clouds.7 mph49%30.04 "HgN/A
1:20 PM63 °FBroken clouds.5 mph52%30.04 "HgN/A
12:50 PM61 °FBroken clouds.7 mph52%30.04 "HgN/A
12:20 PM61 °FBroken clouds.6 mph52%30.04 "HgN/A
11:50 AM61 °FScattered clouds.5 mph55%30.04 "HgN/A
11:20 AM59 °FScattered clouds.6 mph63%30.04 "HgN/A
10:50 AM57 °FScattered clouds.6 mph67%30.04 "HgN/A
10:20 AM57 °FScattered clouds.6 mph63%30.04 "HgN/A
9:50 AM57 °FPassing clouds.2 mph72%30.04 "HgN/A
9:20 AM55 °FPassing clouds.1 mph77%30.04 "HgN/A
8:50 AM54 °FPassing clouds.1 mph88%30.04 "HgN/A
8:20 AM52 °FPassing clouds.3 mph88%30.04 "HgN/A
7:50 AM52 °FPassing clouds.1 mph88%30.04 "HgN/A
7:20 AM48 °FScattered clouds.1 mph94%30.04 "HgN/A
6:50 AM46 °FPassing clouds.1 mph100%30.04 "HgN/A
6:20 AM46 °FFog.1 mph100%30.01 "HgN/A
5:50 AM48 °FPassing clouds.2 mph94%30.01 "HgN/A
5:20 AM48 °FPassing clouds.1 mph94%30.01 "HgN/A
Weather by CustomWeather, © 2014

See weather overviewHow to use our weather pages